Powrót do katalogu

APRIZESAT 4

AktywnyŁącznośćSSO
NORAD 35684·PAYLOAD·🇺🇸 United States

Wystrzelony Jul 29, 2009 z Baikonur Cosmodrome

Loading…

Następne Przeloty (najbliższe 24 godziny)

TLE

ŚwieżeSource: Space-Track

Epoka: Sep 14, 2026, 11:11 UTC

1 35684U 09041D   26257.46614752  .00000514  00000-0  67694-4 0  9993
2 35684  98.1346 334.5374 0043864  33.5344 326.8632 14.83989266924602

Śledź APRIZESAT 4 w czasie rzeczywistym z AllMySat

Download on the App Store